| time (UTC) | temp C | wind direction | speed KPH | gust KPH | rain 1hr cm | rain 24hr cm | rain mn cm | humidity % | barometer mb |
| 20260507051549 | 13 | 40 | 0.0 | 11.3 | 0.00 | 0.10 | 0.10 | 82 | 1020.6 |
| 20260507050035 | 13 | 27 | 0.0 | 0.0 | 0.00 | 0.10 | 0.10 | 81 | 1020.6 |
| 20260507044536 | 13 | 45 | 0.0 | 6.4 | 0.00 | 0.10 | 0.10 | 81 | 1020.5 |
| 20260507043010 | 13 | 28 | 0.0 | 11.3 | 0.00 | 0.10 | 0.10 | 81 | 1020.5 |
| 20260507041522 | 13 | 81 | 0.0 | 12.9 | 0.00 | 0.10 | 0.10 | 81 | 1020.4 |
| 20260507040048 | 13 | 32 | 3.2 | 16.1 | 0.00 | 0.10 | 0.10 | 81 | 1020.2 |
| 20260507034548 | 14 | 69 | 3.2 | 14.5 | 0.00 | 0.10 | 0.10 | 80 | 1020.0 |
| 20260507033029 | 14 | 63 | 0.0 | 12.9 | 0.00 | 0.10 | 0.10 | 80 | 1019.8 |
| 20260507031527 | 15 | 68 | 3.2 | 9.7 | 0.00 | 0.10 | 0.10 | 79 | 1019.6 |
| 20260507030003 | 15 | 72 | 0.0 | 12.9 | 0.00 | 0.10 | 0.10 | 78 | 1019.5 |
| 20260507024630 | 15 | 82 | 1.6 | 11.3 | 0.00 | 0.10 | 0.10 | 77 | 1019.3 |
| 20260507023042 | 16 | 61 | 0.0 | 11.3 | 0.03 | 0.10 | 0.10 | 77 | 1019.1 |
| 20260507021538 | 16 | 74 | 1.6 | 14.5 | 0.03 | 0.10 | 0.10 | 76 | 1019.1 |
| 20260507020018 | 16 | 51 | 6.4 | 19.3 | 0.05 | 0.10 | 0.10 | 75 | 1019.1 |
| 20260507014518 | 17 | 27 | 1.6 | 22.5 | 0.05 | 0.10 | 0.10 | 72 | 1019.2 |
| 20260507013055 | 17 | 24 | 8.0 | 19.3 | 0.03 | 0.08 | 0.08 | 71 | 1019.1 |
| 20260507011553 | 17 | 53 | 6.4 | 20.9 | 0.03 | 0.08 | 0.08 | 71 | 1019.3 |
| 20260507010032 | 18 | 44 | 9.7 | 22.5 | 0.03 | 0.05 | 0.05 | 69 | 1019.3 |
| 20260507004535 | 18 | 77 | 9.7 | 19.3 | 0.05 | 0.05 | 0.05 | 69 | 1019.2 |
| 20260507003011 | 18 | 45 | 8.0 | 22.5 | 0.05 | 0.05 | 0.05 | 69 | 1019.1 |
| 20260507001510 | 18 | 46 | 3.2 | 20.9 | 0.03 | 0.03 | 0.03 | 70 | 1019.1 |
| 20260507000053 | 18 | 34 | 8.0 | 17.7 | 0.03 | 0.03 | 0.03 | 70 | 1019.1 |
| 20260506234556 | 19 | 40 | 3.2 | 16.1 | 0.00 | 0.00 | 0.00 | 71 | 1019.1 |
| 20260506233028 | 19 | 29 | 1.6 | 14.5 | 0.00 | 0.00 | 0.00 | 70 | 1019.0 |
| 20260506231532 | 20 | 24 | 6.4 | 14.5 | 0.00 | 0.00 | 0.00 | 70 | 1019.1 |
| 20260506230004 | 21 | 30 | 3.2 | 11.3 | 0.00 | 0.00 | 0.00 | 67 | 1019.1 |
| 20260506224501 | 21 | 25 | 6.4 | 12.9 | 0.00 | 0.00 | 0.00 | 66 | 1019.3 |
| 20260506223051 | 21 | 97 | 1.6 | 12.9 | 0.00 | 0.00 | 0.00 | 66 | 1019.4 |
| 20260506221540 | 21 | 5 | 3.2 | 12.9 | 0.00 | 0.00 | 0.00 | 66 | 1019.5 |
| 20260506220024 | 21 | 128 | 0.0 | 9.7 | 0.00 | 0.00 | 0.00 | 68 | 1019.5 |
| 20260506214519 | 20 | 106 | 0.0 | 9.7 | 0.00 | 0.00 | 0.00 | 68 | 1019.5 |
| 20260506213001 | 20 | 61 | 3.2 | 11.3 | 0.00 | 0.00 | 0.00 | 70 | 1019.5 |
| 20260506211502 | 19 | 45 | 1.6 | 11.3 | 0.00 | 0.00 | 0.00 | 70 | 1019.5 |
| 20260506210043 | 20 | 58 | 6.4 | 14.5 | 0.00 | 0.00 | 0.00 | 69 | 1019.8 |
| 20260506204549 | 20 | 86 | 0.0 | 9.7 | 0.00 | 0.00 | 0.00 | 67 | 1019.8 |
| 20260506203028 | 20 | 351 | 0.0 | 11.3 | 0.00 | 0.00 | 0.00 | 69 | 1019.8 |
| 20260506201531 | 19 | 196 | 4.8 | 14.5 | 0.00 | 0.00 | 0.00 | 71 | 1019.8 |
| 20260506200005 | 18 | 165 | 4.8 | 11.3 | 0.00 | 0.00 | 0.00 | 75 | 1019.8 |
| 20260506194503 | 17 | 123 | 0.0 | 8.0 | 0.00 | 0.00 | 0.00 | 77 | 1020.1 |
| 20260506193045 | 16 | 70 | 0.0 | 8.0 | 0.00 | 0.00 | 0.00 | 80 | 1020.1 |
| 20260506191547 | 16 | 61 | 0.0 | 8.0 | 0.00 | 0.00 | 0.00 | 81 | 1020.3 |
| 20260506190027 | 16 | 49 | 4.8 | 9.7 | 0.00 | 0.00 | 0.00 | 80 | 1020.2 |
| 20260506184525 | 16 | 74 | 3.2 | 8.0 | 0.00 | 0.00 | 0.00 | 81 | 1020.2 |
| 20260506183007 | 16 | 325 | 0.0 | 6.4 | 0.00 | 0.00 | 0.00 | 83 | 1020.1 |
| 20260506181509 | 15 | 296 | 0.0 | 4.8 | 0.00 | 0.00 | 0.00 | 83 | 1020.0 |
| 20260506180052 | 15 | 246 | 0.0 | 6.4 | 0.00 | 0.00 | 0.00 | 83 | 1020.2 |
| 20260506174548 | 15 | 240 | 1.6 | 6.4 | 0.00 | 0.00 | 0.00 | 84 | 1020.1 |
| 20260506173030 | 15 | 240 | 3.2 | 6.4 | 0.00 | 0.00 | 0.00 | 85 | 1020.0 |
| 20260506171532 | 15 | 210 | 0.0 | 8.0 | 0.00 | 0.00 | 0.00 | 85 | 1020.0 |
| 20260506170018 | 15 | 178 | 0.0 | 6.4 | 0.00 | 0.00 | 0.00 | 86 | 1019.9 |
| 20260506164516 | 15 | 178 | 0.0 | 4.8 | 0.00 | 0.00 | 0.00 | 87 | 1019.9 |
| 20260506163018 | 14 | 178 | 1.6 | 8.0 | 0.00 | 0.00 | 0.00 | 86 | 1020.0 |
| 20260506161516 | 14 | 84 | 0.0 | 4.8 | 0.00 | 0.00 | 0.00 | 86 | 1020.0 |
| 20260506160017 | 14 | 84 | 0.0 | 9.7 | 0.00 | 0.00 | 0.00 | 87 | 1019.6 |
| 20260506154514 | 13 | 73 | 0.0 | 4.8 | 0.00 | 0.00 | 0.00 | 89 | 1019.4 |
| 20260506153013 | 13 | 73 | 0.0 | 8.0 | 0.00 | 0.00 | 0.00 | 89 | 1019.2 |
| 20260506151514 | 13 | 65 | 0.0 | 8.0 | 0.00 | 0.00 | 0.00 | 90 | 1019.4 |
| 20260506150056 | 13 | 64 | 0.0 | 0.0 | 0.00 | 0.00 | 0.00 | 90 | 1019.9 |
| 20260506144604 | 13 | 64 | 0.0 | 6.4 | 0.00 | 0.00 | 0.00 | 89 | 1019.8 |
| 20260506143036 | 13 | 64 | 0.0 | 0.0 | 0.00 | 0.00 | 0.00 | 89 | 1019.5 |
| 20260506141534 | 13 | 66 | 1.6 | 8.0 | 0.00 | 0.00 | 0.00 | 89 | 1019.4 |
| 20260506140014 | 13 | 69 | 1.6 | 8.0 | 0.00 | 0.00 | 0.00 | 89 | 1018.8 |
| 20260506134513 | 13 | 53 | 0.0 | 6.4 | 0.00 | 0.00 | 0.00 | 90 | 1018.9 |
| 20260506133054 | 13 | 53 | 0.0 | 4.8 | 0.00 | 0.00 | 0.00 | 90 | 1018.8 |
| 20260506131555 | 13 | 53 | 0.0 | 0.0 | 0.00 | 0.00 | 0.00 | 90 | 1018.7 |
| 20260506130034 | 13 | 53 | 0.0 | 0.0 | 0.00 | 0.00 | 0.00 | 89 | 1018.4 |
| 20260506124533 | 13 | 53 | 0.0 | 0.0 | 0.00 | 0.00 | 0.00 | 89 | 1018.3 |
| 20260506123014 | 13 | 53 | 0.0 | 0.0 | 0.00 | 0.00 | 0.00 | 89 | 1018.2 |
| 20260506121521 | 13 | 53 | 0.0 | 0.0 | 0.00 | 0.00 | 0.00 | 89 | 1018.2 |
| 20260506120113 | 13 | 53 | 0.0 | 0.0 | 0.00 | 0.00 | 0.00 | 88 | 1018.2 |
| 20260506114556 | 13 | 53 | 0.0 | 0.0 | 0.00 | 0.00 | 0.00 | 88 | 1018.1 |
| 20260506113053 | 13 | 53 | 0.0 | 3.2 | 0.00 | 0.00 | 0.00 | 88 | 1018.0 |
| 20260506111534 | 13 | 53 | 0.0 | 0.0 | 0.00 | 0.00 | 0.00 | 88 | 1017.9 |
| 20260506110033 | 13 | 53 | 0.0 | 0.0 | 0.00 | 0.00 | 0.00 | 87 | 1017.7 |
| 20260506104512 | 13 | 53 | 1.6 | 6.4 | 0.00 | 0.00 | 0.00 | 87 | 1017.5 |
| 20260506103013 | 13 | 49 | 0.0 | 6.4 | 0.00 | 0.00 | 0.00 | 87 | 1017.4 |
| 20260506101553 | 13 | 49 | 0.0 | 0.0 | 0.00 | 0.00 | 0.00 | 87 | 1017.2 |
| 20260506100051 | 13 | 49 | 0.0 | 0.0 | 0.00 | 0.00 | 0.00 | 87 | 1017.0 |
| 20260506094534 | 13 | 49 | 0.0 | 0.0 | 0.00 | 0.00 | 0.00 | 87 | 1017.0 |
| 20260506093031 | 13 | 49 | 0.0 | 0.0 | 0.00 | 0.00 | 0.00 | 86 | 1016.9 |
| 20260506091516 | 14 | 48 | 0.0 | 4.8 | 0.00 | 0.00 | 0.00 | 86 | 1016.8 |
| 20260506090017 | 14 | 48 | 0.0 | 1.6 | 0.00 | 0.00 | 0.00 | 85 | 1016.8 |
| 20260506084615 | 14 | 48 | 0.0 | 6.4 | 0.00 | 0.00 | 0.00 | 85 | 1016.7 |
| 20260506083057 | 14 | 154 | 0.0 | 6.4 | 0.00 | 0.00 | 0.00 | 85 | 1016.7 |
| 20260506081559 | 15 | 154 | 0.0 | 6.4 | 0.00 | 0.00 | 0.00 | 85 | 1016.7 |
| 20260506073057 | 15 | 154 | 0.0 | 6.4 | 0.00 | 0.00 | 0.00 | 85 | 1016.4 |
| 20260506071552 | 15 | 154 | 0.0 | 0.0 | 0.00 | 0.00 | 0.00 | 84 | 1016.4 |
| 20260506061513 | 15 | 154 | 0.0 | 4.8 | 0.00 | 0.00 | 0.00 | 83 | 1016.1 |